Weather History for Kaneohe MCBH, HI

Change the Weather History Date:

Sunday, November 25, 2012

  Actual Average Record
Temperature  
Mean Temperature 78 °F -  
Max Temperature 82 °F 77 °F 84 °F (2001)
Min Temperature 73 °F 69 °F 56 °F (2005)
Cooling Degree Days 12    
Growing Degree Days 28 (Base 50)    
Moisture  
Dew Point 67 °F    
Average Humidity 74    
Maximum Humidity 88    
Minimum Humidity 57    
Precipitation  
Precipitation 0.00 in - - ()
Sea Level Pressure  
Sea Level Pressure 29.98 in    
Wind  
Wind Speed 8 mph (NE)    
Max Wind Speed 17 mph    
Max Gust Speed 22 mph    
Visibility 10 miles    
Events Rain    
Averages and records for this station are not official NWS values.
T = Trace of Precipitation, MM = Missing Value Source: NWS Daily Summary

Daily Weather History Graph

Daily Weather History Graph

Search for Another Location

Airport:

Trip Planner

Search our weather history database for the weather conditions in past years. The results will help you decide how hot, cold, wet, or windy it might be!

Date:

Astronomy

Nov. 25, 2012 Rise Set
Actual Time 6:48 AM HST 5:47 PM HST
Civil Twilight 6:25 AM HST 6:11 PM HST
Nautical Twilight 5:57 AM HST 6:38 PM HST
Astronomical Twilight 5:30 AM HST 7:05 PM HST
Moon 4:00 PM HST (11/25) 4:26 AM HST (11/25)
Length of Visible Light 11h 46m
Length of Day
10h 58m
Waxing Gibbous, 94% of the Moon is Illuminated
Nov 25
Waxing Gibbous
Nov 28
Full
Dec 6
Last Quarter
Dec 12
New
Dec 19
First Quarter

Hourly Weather History & Observations

Time (HST) Temp. Heat Index Dew Point Humidity Pressure Visibility Wind Dir Wind Speed Gust Speed Precip Events Conditions
12:57 AM 75.2 °F - 69.8 °F 83% 29.97 in 10.0 mi NE 4.6 mph - N/A   Partly Cloudy
1:57 AM 75.2 °F - 69.8 °F 83% 29.96 in 10.0 mi ENE 5.8 mph - N/A   Partly Cloudy
2:19 AM 75.2 °F - 69.8 °F 83% 29.98 in 6.2 mi ENE 3.5 mph - N/A   Mostly Cloudy
2:34 AM 75.2 °F - 69.8 °F 83% 29.97 in 6.2 mi ENE 4.6 mph - N/A   Scattered Clouds
2:57 AM 73.4 °F - 69.8 °F 88% 29.96 in 10.0 mi Calm Calm - N/A   Scattered Clouds
3:57 AM 73.4 °F - 69.8 °F 88% 29.96 in 10.0 mi ENE 4.6 mph - N/A   Partly Cloudy
4:57 AM 73.4 °F - 69.8 °F 88% 29.96 in 10.0 mi NE 4.6 mph - N/A   Partly Cloudy
5:57 AM 73.9 °F - 68.0 °F 82% 29.97 in 10.0 mi ENE 3.5 mph - N/A   Partly Cloudy
6:57 AM 73.4 °F - 68.7 °F 85% 29.99 in 10.0 mi NE 5.8 mph - N/A   Partly Cloudy
7:57 AM 73.4 °F - 68.7 °F 85% 30.01 in 10.0 mi NE 9.2 mph - N/A   Scattered Clouds
8:57 AM 73.4 °F - 68.0 °F 83% 30.02 in 10.0 mi NE 8.1 mph - N/A   Partly Cloudy
9:57 AM 75.2 °F - 66.9 °F 75% 30.04 in 10.0 mi NE 10.4 mph - N/A   Scattered Clouds
10:57 AM 77.0 °F - 68.0 °F 74% 30.02 in 10.0 mi NNE 10.4 mph - N/A   Partly Cloudy
11:57 AM 78.8 °F - 66.0 °F 65% 30.01 in 10.0 mi NNE 11.5 mph - N/A Rain Light Rain
12:57 PM 80.6 °F 84.4 °F 71.1 °F 73% 29.97 in 10.0 mi NNE 12.7 mph - N/A   Mostly Cloudy
1:57 PM 82.4 °F 84.4 °F 66.0 °F 57% 29.94 in 10.0 mi NNE 13.8 mph - N/A   Partly Cloudy
2:57 PM 80.6 °F 82.4 °F 64.9 °F 59% 29.94 in 10.0 mi NNE 17.3 mph - N/A   Clear
3:57 PM 78.8 °F - 64.0 °F 60% 29.94 in 10.0 mi NNE 16.1 mph 21.9 mph N/A   Partly Cloudy
4:57 PM 78.8 °F - 63.0 °F 58% 29.95 in 10.0 mi NNE 12.7 mph 20.7 mph N/A   Partly Cloudy
5:57 PM 77.0 °F - 62.1 °F 60% 29.98 in 10.0 mi NNE 17.3 mph - N/A   Scattered Clouds
6:57 PM 75.2 °F - 64.0 °F 68% 29.99 in 10.0 mi NNE 13.8 mph 20.7 mph N/A   Partly Cloudy
7:57 PM 75.2 °F - 63.0 °F 66% 30.00 in 10.0 mi NE 13.8 mph 20.7 mph N/A   Mostly Cloudy
8:57 PM 75.2 °F - 64.9 °F 70% 30.02 in 10.0 mi NE 10.4 mph - N/A   Partly Cloudy
9:57 PM 75.2 °F - 64.0 °F 68% 30.01 in 10.0 mi NE 11.5 mph - N/A   Scattered Clouds
10:57 PM 75.2 °F - 64.9 °F 70% 30.01 in 10.0 mi NE 10.4 mph 19.6 mph N/A   Mostly Cloudy
11:57 PM 75.2 °F - 66.9 °F 75% 30.01 in 10.0 mi NE 10.4 mph - N/A   Mostly Cloudy